Date,TemperatureHighF,TemperatureAvgF,TemperatureLowF,DewpointHighF,DewpointAvgF,DewpointLowF,HumidityHigh,HumidityAvg,HumidityLow,PressureMaxIn,PressureMinIn,WindSpeedMaxMPH,WindSpeedAvgMPH,GustSpeedMaxMPH,PrecipitationSumIn
2013-1-1,14,6,-3,9,-1,-5,92,75,54,0.00,40.00,0,0,0,0.00
2013-1-2,24,17,11,14,10,5,91,74,55,0.00,40.00,0,0,0,0.00
2013-1-3,23,16,8,19,14,5,99,90,79,0.00,40.00,0,0,0,0.00
2013-1-4,29,22,9,15,13,8,95,72,54,0.00,40.00,0,0,0,0.00
2013-1-5,36,26,15,28,21,13,98,83,62,0.00,40.00,0,0,0,0.00
2013-1-6,24,20,16,20,16,8,94,82,68,0.00,40.00,0,0,0,0.00
2013-1-7,38,27,16,27,18,9,86,69,48,0.00,40.00,0,0,0,0.00
2013-1-8,39,33,24,32,27,24,99,80,59,0.00,40.00,0,0,0,0.00
2013-1-9,37,32,27,30,25,19,92,75,50,0.00,40.00,0,0,0,0.00
2013-1-10,38,31,22,35,24,18,99,75,45,0.00,40.00,0,0,0,0.00
2013-1-11,45,39,33,45,39,33,99,99,99,0.00,40.00,0,0,0,0.00
2013-1-12,47,27,14,45,20,7,99,74,64,0.00,40.00,0,0,0,0.00
2013-1-13,14,9,5,7,3,-1,80,74,68,0.00,40.00,0,0,0,0.00
2013-1-14,20,12,4,10,6,1,92,79,61,0.00,40.00,0,0,0,0.00
2013-1-15,30,21,10,12,11,8,95,67,43,0.00,40.00,0,0,0,0.00
2013-1-16,33,26,21,31,20,7,97,78,55,0.00,40.00,0,0,0,0.00
2013-1-17,21,16,9,10,3,-3,84,59,43,0.00,40.00,0,0,0,0.00
2013-1-18,44,30,11,32,22,7,87,74,54,0.00,40.00,0,0,0,0.00
2013-1-19,45,33,6,33,24,-6,92,72,46,0.00,40.00,0,0,0,0.00
2013-1-20,11,6,2,-2,-4,-6,73,62,49,0.00,40.00,0,0,0,0.00
2013-1-21,4,-3,-8,-2,-10,-14,81,72,61,0.00,40.00,0,0,0,0.00
2013-1-22,3,-5,-10,-4,-10,-14,86,77,61,0.00,40.00,0,0,0,0.00
2013-1-23,17,9,-3,13,3,-11,88,77,62,0.00,40.00,0,0,0,0.00
2013-1-24,-3,-5,-7,-8,-11,-12,81,76,67,0.00,40.00,0,0,0,0.00
2013-1-30,26,18,12,25,16,7,99,91,79,0.00,40.00,0,0,0,0.00
2013-1-31,12,4,-4,7,-2,-8,83,75,63,0.00,40.00,0,0,0,0.00
2013-2-1,3,-2,-11,-1,-9,-15,87,73,50,0.00,40.00,0,0,0,0.00
2013-2-2,12,6,2,3,0,-1,92,77,57,0.00,40.00,0,0,0,0.00
2013-2-3,16,11,7,10,6,3,95,80,59,0.00,40.00,0,0,0,0.00
2013-2-4,17,12,8,10,3,-3,97,68,44,0.00,40.00,0,0,0,0.00
2013-2-5,27,20,10,25,16,0,94,84,63,0.00,40.00,0,0,0,0.00
2013-2-6,27,24,10,25,21,8,99,87,72,0.00,40.00,0,0,0,0.00
2013-2-7,30,27,25,29,26,25,99,99,95,0.00,40.00,0,0,0,0.00
2013-2-8,25,21,10,25,12,6,99,68,51,0.00,40.00,0,0,0,0.00
2013-2-9,28,22,13,25,20,12,99,93,80,0.00,40.00,0,0,0,0.00
2013-2-10,39,32,26,39,32,25,99,98,94,0.00,40.00,0,0,0,0.00
2013-2-11,35,28,21,35,25,18,99,91,81,0.00,40.00,0,0,0,0.00
2013-2-12,32,25,18,21,18,15,90,77,56,0.00,40.00,0,0,0,0.00
2013-2-13,37,30,21,32,24,21,99,80,55,0.00,40.00,0,0,0,0.00
2013-2-14,34,31,16,34,25,6,99,81,55,0.00,40.00,0,-9,0,0.00
2013-2-15,20,13,5,8,2,-3,72,61,49,0.00,40.00,0,0,0,0.00
2013-2-16,16,10,4,4,0,-5,83,64,46,0.00,40.00,0,0,0,0.00
2013-2-17,26,19,1,18,6,-5,73,59,45,0.00,40.00,0,0,0,0.00
2013-2-18,41,31,18,33,25,18,99,79,58,0.00,40.00,0,0,0,0.00
2013-2-19,18,8,4,18,1,-7,99,74,56,0.00,40.00,0,0,0,0.00
2013-2-20,22,10,-1,5,-1,-7,80,64,46,0.00,40.00,0,0,0,0.00
2013-2-21,22,13,4,21,10,3,99,86,71,0.00,40.00,0,0,0,0.00
2013-2-22,30,24,21,25,22,18,99,94,81,0.00,40.00,0,0,0,0.00
2013-2-23,29,24,20,22,20,18,98,86,66,0.00,40.00,0,0,0,0.00
2013-2-24,35,26,16,22,17,13,99,72,43,0.00,40.00,0,0,0,0.00
2013-2-25,40,32,26,25,22,18,92,70,51,0.00,40.00,0,0,0,0.00
2013-2-26,35,28,21,27,24,21,99,85,65,0.00,40.00,0,0,0,0.00
2013-2-27,32,31,29,32,28,24,99,91,78,0.00,40.00,0,0,0,0.00
2013-2-28,31,29,24,30,24,14,98,81,62,0.00,40.00,0,0,0,0.00
2013-3-1,28,24,20,17,13,8,85,64,50,0.00,40.00,0,0,0,0.00
2013-3-2,30,20,10,11,5,2,79,55,33,0.00,40.00,0,0,0,0.00
2013-3-3,31,20,10,9,5,-1,80,53,31,0.00,40.00,0,0,0,0.00
2013-3-4,28,23,16,23,13,2,87,67,48,0.00,40.00,0,0,0,0.00
2013-3-5,27,25,22,27,24,22,99,97,87,0.00,40.00,0,0,0,0.00
2013-3-6,29,25,18,24,19,13,99,82,56,0.00,40.00,0,0,0,0.00
2013-3-7,34,23,12,15,14,11,98,71,45,0.00,40.00,0,0,0,0.00
2013-3-8,41,28,12,26,19,11,98,71,49,0.00,40.00,0,0,0,0.00
2013-3-9,38,36,30,38,33,26,99,91,79,0.00,40.00,0,0,0,0.00
2013-3-10,38,35,32,37,35,32,99,99,99,0.00,40.00,0,0,0,0.00
2013-3-11,32,29,26,32,29,26,99,99,99,0.00,40.00,0,0,0,0.03
2013-3-12,27,24,20,26,21,16,99,88,75,0.00,40.00,0,0,0,0.00
2013-3-13,31,22,13,18,10,4,94,65,34,0.00,40.00,0,0,0,0.00
2013-3-14,38,27,19,28,20,12,90,78,63,0.00,40.00,0,0,0,0.02
2013-3-15,34,31,29,34,31,27,99,98,89,0.00,40.00,0,0,0,0.05
2013-3-16,29,24,18,29,18,9,99,82,59,0.00,40.00,0,0,0,0.00
2013-3-17,28,19,8,15,7,0,77,62,46,0.00,40.00,0,0,0,0.00
2013-3-18,32,21,14,29,19,10,99,92,77,0.00,40.00,0,0,0,0.10
2013-3-19,25,16,8,10,6,1,87,65,39,0.00,40.00,0,0,0,0.00
2013-3-20,18,12,4,1,-1,-7,67,57,48,0.00,40.00,0,0,0,0.00
2013-3-21,26,15,1,6,3,-2,92,61,41,0.00,40.00,0,0,0,0.00
2013-3-22,36,23,11,11,8,6,82,55,33,0.00,40.00,0,0,0,0.00
2013-3-23,40,30,19,19,14,11,76,52,36,0.00,40.00,0,0,0,0.00
2013-3-24,32,29,26,29,23,19,98,80,63,0.00,40.00,0,0,0,0.00
2013-3-25,33,26,22,20,18,16,89,74,56,0.00,40.00,0,0,0,0.00
2013-3-26,38,31,21,22,18,12,86,61,39,0.00,40.00,0,0,0,0.00
2013-3-27,42,35,29,24,20,14,80,56,36,0.00,40.00,0,0,0,0.00
2013-3-28,46,36,18,21,17,12,77,49,32,0.00,40.00,0,0,0,0.00
2013-3-29,52,41,28,23,20,17,68,45,29,0.00,40.00,0,0,0,0.00
2013-3-30,49,43,39,44,33,23,99,69,48,0.00,40.00,0,0,0,0.00
2013-3-31,39,35,28,38,29,12,99,82,44,0.00,40.00,0,0,0,0.00
2013-4-1,32,26,21,13,9,7,67,49,35,0.00,40.00,0,0,0,0.00
2013-4-2,34,26,18,18,12,8,85,57,33,0.00,40.00,0,0,0,0.00
2013-4-3,46,33,21,17,12,8,69,44,25,0.00,40.00,0,0,0,0.00
2013-4-4,50,42,36,35,24,16,66,50,40,0.00,40.00,0,0,0,0.00
2013-4-5,45,38,30,34,22,18,99,55,35,0.00,40.00,0,0,0,0.00
2013-4-6,55,43,33,49,32,15,99,69,44,0.00,40.00,0,0,0,0.00
2013-4-7,49,39,35,38,34,32,99,81,54,0.00,40.00,0,0,0,0.00
2013-4-8,48,41,36,43,38,35,99,90,79,0.00,40.00,0,0,0,0.00
2013-4-9,39,36,33,39,36,32,99,99,99,0.00,40.00,0,0,0,0.00
2013-4-10,33,32,30,33,31,29,99,99,84,0.00,40.00,0,0,0,0.00
2013-4-11,34,33,31,34,31,27,99,95,80,0.00,40.00,0,0,0,0.00
2013-4-12,34,31,29,34,30,29,99,96,89,0.00,40.00,0,0,0,0.00
2013-4-13,35,32,28,31,27,23,99,82,63,0.00,40.00,0,0,0,0.00
2013-4-14,38,32,28,38,31,24,99,95,83,0.00,40.00,0,0,0,0.00
2013-4-15,51,41,35,42,32,26,99,74,40,0.00,40.00,0,0,0,0.00
2013-4-16,48,38,32,31,27,24,92,67,40,0.00,40.00,0,0,0,0.00
2013-4-17,39,36,31,38,33,28,99,92,75,0.00,40.00,0,0,0,0.00
2013-4-18,40,38,34,40,38,34,99,99,99,0.00,40.00,0,0,0,0.00
2013-4-19,34,32,27,34,26,19,99,81,55,0.00,40.00,0,0,0,0.00
2013-4-20,42,33,23,22,13,6,84,50,22,0.00,40.00,0,0,0,0.00
2013-4-21,49,38,30,39,29,16,99,72,53,0.00,40.00,0,0,0,0.00
2013-4-22,50,47,45,49,45,39,99,93,72,0.00,40.00,0,0,0,0.00
2013-4-23,50,38,32,49,32,22,99,82,58,0.00,40.00,0,0,0,0.00
2013-4-24,50,39,26,37,23,18,96,56,33,0.00,40.00,0,0,0,0.00
2013-4-25,48,40,35,37,30,22,99,72,40,0.00,40.00,0,0,0,0.00
2013-4-26,70,56,42,43,31,19,58,40,30,0.00,40.00,0,0,0,0.00
2013-4-27,72,60,49,49,44,40,93,61,35,0.00,40.00,0,0,0,0.00
2013-4-28,73,61,49,45,42,39,84,53,30,0.00,40.00,0,0,0,0.00
2013-4-29,71,64,57,56,51,41,89,64,45,0.00,40.00,0,0,0,0.00
2013-4-30,84,73,56,59,55,51,93,59,33,0.00,40.00,0,0,0,0.00
2013-5-6,76,70,59,39,36,33,47,30,25,0.00,40.00,0,0,0,0.00
2013-5-7,79,68,49,47,39,35,78,39,21,0.00,40.00,0,0,0,0.00
2013-5-8,81,70,56,48,42,38,57,38,25,0.00,40.00,0,0,0,0.00
2013-5-9,64,57,51,58,54,48,99,92,57,0.00,40.00,0,0,0,0.00
2013-5-10,60,48,40,48,38,-100,99,79,46,0.00,40.00,0,0,0,0.00
2013-5-11,51,46,42,47,31,-100,98,60,31,0.00,40.00,0,0,0,0.00
2013-5-12,53,44,34,24,20,16,62,40,25,0.00,40.00,0,0,0,0.00
2013-5-13,65,51,31,35,26,19,77,42,22,0.00,40.00,0,0,0,0.00
2013-5-14,90,73,57,55,47,35,70,42,25,0.00,40.00,0,0,0,0.00
2013-5-15,73,68,61,49,44,40,60,44,32,0.00,40.00,0,0,0,0.00
2013-5-16,83,67,58,51,20,-100,61,40,26,0.00,40.00,0,0,0,0.00
2013-5-17,64,54,47,57,45,-100,99,81,43,0.00,40.00,0,0,0,0.00
2013-5-18,79,63,50,63,56,49,99,79,53,0.00,40.00,0,0,0,0.00
2013-5-19,84,73,65,65,62,56,87,69,45,0.00,40.00,0,0,0,0.00
2013-5-20,80,70,61,62,57,54,97,69,43,0.00,40.00,0,0,0,0.00
2013-5-21,72,64,58,61,58,53,99,80,59,0.00,40.00,0,0,0,0.00
2013-5-22,58,56,52,58,56,50,99,98,94,0.00,40.00,0,0,0,0.00
2013-5-23,60,52,46,50,39,27,96,67,28,0.00,40.00,0,0,0,0.00
2013-5-24,64,51,37,38,35,32,96,57,32,0.00,40.00,0,0,0,0.00
2013-5-25,59,53,48,49,41,35,98,68,43,0.00,40.00,0,0,0,0.00
2013-5-26,61,54,47,52,42,33,91,68,40,0.00,40.00,0,0,0,0.00
2013-5-27,54,53,50,53,49,41,98,87,64,0.00,40.00,0,0,0,0.17
2013-5-28,60,55,50,60,55,49,99,98,98,0.00,40.00,0,0,0,0.00
2013-5-29,78,64,59,64,60,58,99,91,50,0.00,40.00,0,0,0,0.49
2013-5-30,81,71,63,68,64,61,96,81,51,0.00,40.00,0,0,0,0.06
2013-5-31,79,69,62,63,60,55,98,75,45,0.00,40.00,0,0,0,0.27
2013-6-1,75,64,55,60,53,-100,97,73,47,0.00,40.00,0,0,0,0.00
2013-6-2,60,52,44,53,41,36,98,68,43,0.00,40.00,0,0,0,0.00
2013-6-3,69,58,47,45,42,40,86,58,35,0.00,40.00,0,0,0,0.00
2013-6-4,59,54,52,53,50,44,96,88,57,0.00,40.00,0,0,0,0.15
2013-6-5,56,53,50,55,52,49,97,96,94,0.00,40.00,0,0,0,0.11
2013-6-6,55,53,51,54,51,49,96,96,96,0.00,40.00,0,-10,0,0.00
2013-6-7,68,58,49,52,48,42,98,74,40,0.00,40.00,0,0,0,0.00
2013-6-8,70,60,54,59,54,51,97,84,50,0.00,40.00,0,0,0,0.03
2013-6-9,71,61,54,64,57,53,99,87,61,0.00,40.00,0,0,0,0.16
2013-6-10,66,62,58,65,60,57,97,96,94,0.00,40.00,0,0,0,0.00
2013-6-11,78,74,67,69,66,62,95,77,59,0.00,40.00,0,0,0,0.00
2013-6-12,76,67,62,67,64,59,96,90,75,0.00,40.00,0,0,0,0.06
2013-6-13,76,67,58,60,54,49,99,67,41,0.00,40.00,0,0,0,0.00
2013-6-14,77,71,59,59,53,49,84,55,41,0.00,40.00,0,0,0,0.00
2013-6-15,80,69,60,70,63,57,98,83,63,0.00,40.00,0,0,0,0.08
2013-6-16,82,71,60,68,55,45,99,63,30,0.00,40.00,0,0,0,0.00
2013-6-17,82,72,62,60,54,50,86,55,35,0.00,40.00,0,0,0,0.00
2013-6-18,72,63,55,61,49,40,97,63,42,0.00,40.00,0,0,0,0.00
2013-6-19,77,66,51,55,49,42,90,57,43,0.00,40.00,0,0,0,0.00
2013-6-20,85,73,65,60,56,51,71,57,41,0.00,40.00,0,0,0,0.00
2013-6-22,83,74,63,73,68,62,98,82,58,0.00,40.00,0,0,0,0.00
2013-6-23,82,73,64,71,66,62,98,79,61,0.00,40.00,0,-11,0,0.00
2013-6-24,82,72,66,70,67,64,94,84,67,0.00,40.00,0,0,0,0.00
2013-6-25,81,72,64,74,68,63,99,89,66,0.00,40.00,0,0,0,0.00
2013-6-26,83,74,69,73,70,68,98,89,66,0.00,40.00,0,0,0,0.00
2013-6-27,85,76,68,71,64,53,96,69,40,0.00,40.00,0,0,0,0.00
2013-6-28,73,67,61,67,61,53,99,83,54,0.00,40.00,0,0,0,0.00
2013-6-29,69,64,60,63,60,52,99,86,62,0.00,40.00,0,0,0,0.00
2013-6-30,76,67,56,52,48,42,79,54,30,0.00,40.00,0,0,0,0.00
2013-7-1,79,69,55,58,51,47,92,57,32,0.00,40.00,0,0,0,0.00
2013-7-2,75,66,57,60,55,50,98,69,44,0.00,40.00,0,0,0,0.00
2013-7-3,74,64,52,60,51,42,97,68,33,0.00,40.00,0,0,0,0.00
2013-7-4,84,72,61,61,58,54,96,65,36,0.00,40.00,0,0,0,0.00
2013-7-5,85,80,72,63,60,56,65,52,43,0.00,40.00,0,0,0,0.00
2013-7-6,86,77,69,67,64,61,78,65,51,0.00,40.00,0,0,0,0.00
2013-7-7,85,78,71,73,70,66,90,75,60,0.00,40.00,0,0,0,0.00
2013-7-8,87,79,74,75,73,70,97,82,60,0.00,40.00,0,0,0,0.00
2013-7-9,85,77,71,75,72,69,98,88,66,0.00,40.00,0,0,0,0.00
2013-7-10,78,70,64,71,55,-100,97,65,42,0.00,40.00,0,0,0,0.00
2013-7-11,84,72,60,63,57,53,87,63,39,0.00,40.00,0,0,0,0.00
2013-7-12,81,73,63,63,60,56,92,66,44,0.00,40.00,0,0,0,0.00
2013-7-13,80,72,66,67,61,58,97,71,53,0.00,40.00,0,0,0,0.00
2013-7-14,86,76,65,68,63,60,97,65,47,0.00,40.00,0,0,0,0.00
2013-7-15,89,79,68,73,70,67,96,74,54,0.00,40.00,0,0,0,0.00
2013-7-16,92,84,75,75,73,71,94,72,52,0.00,40.00,0,0,0,0.00
2013-7-17,92,83,75,75,72,70,96,73,50,0.00,40.00,0,0,0,0.00
2013-7-18,94,84,76,74,72,69,88,66,49,0.00,40.00,0,0,0,0.00
2013-7-19,90,81,69,72,66,59,96,64,41,0.00,40.00,0,0,0,0.00
2013-7-20,81,71,64,65,60,-100,94,72,48,0.00,40.00,0,0,0,0.00
2013-7-21,70,65,61,67,62,57,97,89,72,0.00,40.00,0,0,0,0.00
2013-7-22,85,72,60,74,66,59,97,83,61,0.00,40.00,0,0,0,0.00
2013-7-23,71,66,58,68,54,49,92,66,49,0.00,40.00,0,0,0,0.00
2013-7-24,72,63,51,57,52,48,92,69,43,0.00,40.00,0,0,0,0.00
2013-7-25,80,65,59,66,61,55,98,86,59,0.00,40.00,0,0,0,0.00
2013-7-26,74,66,56,69,59,51,99,80,44,0.00,40.00,0,0,0,0.00
2013-7-27,58,53,47,51,48,44,98,83,61,0.00,40.00,0,0,0,0.00
2013-7-28,64,56,48,55,51,47,98,84,62,0.00,40.00,0,0,0,0.00
2013-7-29,75,64,53,59,53,47,98,72,42,0.00,40.00,0,0,0,0.00
2013-7-30,76,68,60,63,59,57,93,75,52,0.00,40.00,0,0,0,0.00
2013-7-31,76,68,63,68,63,60,95,85,58,0.00,40.00,0,0,0,0.00
2013-8-1,76,67,57,62,56,48,99,73,39,0.00,40.00,0,0,0,0.00
2013-8-2,78,69,61,65,55,45,99,66,35,0.00,40.00,0,0,0,0.00
2013-8-3,76,66,55,58,50,43,94,61,36,0.00,40.00,0,0,0,0.00
2013-8-4,76,65,51,57,53,46,99,68,42,0.00,40.00,0,0,0,0.00
2013-8-5,70,64,58,65,62,54,98,90,74,0.00,40.00,0,0,0,0.00
2013-8-6,83,73,64,69,64,60,99,77,45,0.00,40.00,0,0,0,0.00
2013-8-7,70,62,60,64,61,57,99,95,79,0.00,40.00,0,0,0,0.00
2013-8-8,76,70,59,58,52,47,81,54,39,0.00,40.00,0,0,0,0.00
2013-8-9,76,68,62,61,56,53,92,67,45,0.00,40.00,0,0,0,0.00
2013-8-10,74,65,58,57,53,50,91,70,45,0.00,40.00,0,0,0,0.00
2013-8-11,69,63,58,66,59,52,95,89,73,0.00,40.00,0,0,0,0.00
2013-8-12,76,66,59,70,59,51,97,81,44,0.00,40.00,0,0,0,0.00
2013-8-13,69,60,49,56,46,-100,98,66,40,0.00,40.00,0,0,0,0.00
2013-8-14,72,61,51,54,51,47,97,73,44,0.00,40.00,0,0,0,0.00
2013-8-15,77,63,58,58,46,-100,91,65,41,0.00,40.00,0,0,0,0.00
2013-8-16,80,70,66,59,48,-100,69,51,38,0.00,40.00,0,0,0,0.00
2013-8-17,82,74,67,58,52,-100,73,50,38,0.00,40.00,0,0,0,0.00
2013-8-18,81,75,64,61,58,55,85,58,44,0.00,40.00,0,0,0,0.00
2013-8-19,81,69,62,65,56,-100,92,73,56,0.00,40.00,0,0,0,0.00
2013-8-20,85,76,67,68,66,64,91,73,57,0.00,40.00,0,0,0,0.00
2013-8-21,88,78,71,74,70,66,97,79,61,0.00,40.00,0,0,0,0.00
2013-8-22,81,71,64,70,61,53,98,76,37,0.00,40.00,0,0,0,0.00
2013-8-23,82,70,59,62,58,54,96,69,43,0.00,40.00,0,0,0,0.00
2013-8-24,82,74,66,70,60,-100,81,65,46,0.00,40.00,0,0,0,0.00
2013-8-25,90,81,73,74,71,67,90,73,55,0.00,40.00,0,0,0,0.00
2013-8-26,92,81,73,77,72,65,88,75,57,0.00,40.00,0,0,0,0.00
2013-8-27,92,83,77,75,72,71,86,72,53,0.00,40.00,0,0,0,0.00
2013-8-28,83,78,73,73,70,67,95,77,60,0.00,40.00,0,0,0,0.00
2013-8-29,89,78,64,74,70,63,99,80,59,0.00,40.00,0,0,0,0.00
2013-8-30,86,79,70,75,70,63,98,78,52,0.00,40.00,0,0,0,0.00
2013-8-31,84,71,61,68,61,-100,98,77,45,0.00,40.00,0,0,0,0.00
2013-9-1,84,73,66,70,63,54,96,73,40,0.00,40.00,0,0,0,0.00
2013-9-2,68,60,53,60,53,47,97,79,50,0.00,40.00,0,0,0,0.00
2013-9-3,74,61,49,55,50,47,98,72,42,0.00,40.00,0,0,0,0.00
2013-9-4,86,77,56,65,61,53,92,60,40,0.00,40.00,0,0,0,0.00
2013-9-5,78,67,61,65,60,55,98,78,47,0.00,40.00,0,0,0,0.00
2013-9-6,86,73,61,66,58,47,84,62,43,0.00,40.00,0,0,0,0.00
2013-9-7,90,79,69,70,64,-100,88,65,49,0.00,40.00,0,0,0,0.00
2013-9-8,73,67,61,70,61,54,96,83,65,0.00,40.00,0,0,0,0.00
2013-9-9,89,76,65,72,67,63,96,76,53,0.00,40.00,0,0,0,0.00
2013-9-10,90,81,70,67,64,60,79,58,47,0.00,40.00,0,0,0,0.00
2013-9-11,83,72,66,67,63,55,96,75,47,0.00,40.00,0,0,0,0.00
2013-9-12,69,63,55,57,50,42,97,65,40,0.00,40.00,0,0,0,0.00
2013-9-13,65,54,44,47,40,32,99,63,30,0.00,40.00,0,0,0,0.00
2013-9-14,73,64,47,49,43,-100,74,50,37,0.00,40.00,0,0,0,0.00
2013-9-15,64,58,54,55,53,48,97,85,63,0.00,40.00,0,0,0,0.00
2013-9-16,63,52,42,50,42,34,99,71,36,0.00,40.00,0,0,0,0.00
2013-9-17,65,58,47,58,52,45,99,81,54,0.00,40.00,0,0,0,0.00
2013-9-18,72,62,59,70,61,58,99,96,91,0.00,40.00,0,0,0,0.00
2013-9-19,82,74,67,73,70,67,99,86,62,0.00,40.00,0,0,0,0.00
2013-9-20,67,62,53,67,58,50,99,90,66,0.00,40.00,0,0,0,0.00
2013-9-21,60,52,48,51,45,-100,99,82,53,0.00,40.00,0,0,0,0.00
2013-9-22,65,52,39,50,44,39,99,79,48,0.00,40.00,0,0,0,0.00
2013-9-23,67,56,44,52,48,44,99,78,50,0.00,40.00,0,0,0,0.00
2013-9-24,71,56,43,55,48,43,99,79,43,0.00,40.00,0,0,0,0.00
2013-9-25,67,55,45,58,50,45,99,85,53,0.00,40.00,4,1,9,0.00
2013-9-26,74,59,43,58,51,42,99,80,47,0.00,40.00,6,3,12,0.00
2013-9-27,79,69,60,57,52,47,74,55,43,0.00,40.00,6,4,20,0.00
2013-9-28,77,61,51,65,53,-100,99,79,55,0.00,40.00,7,3,27,0.18
2013-9-29,70,58,46,50,46,42,99,68,37,0.00,40.00,3,1,12,0.00
2013-9-30,70,63,54,48,44,41,66,51,39,0.00,40.00,5,2,17,0.00
2013-10-1,60,59,58,48,45,42,64,59,54,0.00,40.00,1,0,3,0.00
2013-10-2,74,69,58,45,42,39,61,38,29,0.00,40.00,4,3,11,0.00
2013-10-3,67,61,55,63,58,45,97,89,47,0.00,40.00,9,4,17,0.18
2013-10-4,59,58,56,58,57,55,97,97,96,0.00,40.00,12,8,26,0.00
2013-10-5,69,61,50,67,60,48,97,96,93,0.00,40.00,12,5,26,0.02
2013-10-6,55,48,40,48,41,35,97,79,49,0.00,40.00,3,1,7,0.00
2013-10-7,63,52,44,50,44,40,98,79,43,0.00,40.00,2,1,14,0.01
2013-10-8,73,68,62,46,44,42,53,42,35,0.00,40.00,5,2,17,0.00
2013-10-9,72,64,55,50,46,42,69,52,40,0.00,40.00,4,2,12,0.00
2013-10-10,71,63,50,51,47,45,95,61,40,0.00,40.00,4,2,12,0.00
2013-10-11,72,60,45,57,51,44,98,74,50,0.00,40.00,10,3,29,0.00
2013-10-12,67,59,45,58,45,-100,87,64,44,0.00,40.00,4,2,16,0.00
2013-10-13,58,49,39,40,36,29,99,65,34,0.00,40.00,3,1,12,0.00
2013-10-14,58,54,48,44,40,36,87,62,48,0.00,40.00,12,8,20,0.00
2013-10-15,57,49,46,53,47,44,99,93,75,0.00,40.00,12,4,19,0.07
2013-10-16,48,46,40,48,46,39,99,98,94,0.00,40.00,3,1,10,0.00
2013-10-17,54,45,37,46,38,35,99,79,48,0.00,40.00,2,1,9,0.00
2013-10-18,47,43,39,45,39,32,99,87,63,0.00,40.00,6,2,16,0.00
2013-10-19,51,39,35,42,33,-100,99,83,49,0.00,40.00,4,1,12,0.07
2013-10-20,47,40,32,44,38,32,99,96,86,0.00,40.00,6,2,14,0.00
2013-10-21,42,35,30,40,27,19,98,74,51,0.00,40.00,7,3,18,0.00
2013-10-22,43,32,25,30,26,22,95,80,51,0.00,40.00,5,2,14,0.00
2013-10-23,39,32,26,34,28,25,99,85,61,0.00,40.00,5,2,11,0.00
2013-10-24,41,34,31,28,25,21,88,70,47,0.00,40.00,6,3,14,0.00
2013-10-25,50,41,31,30,28,26,91,62,40,0.00,40.00,6,3,24,0.00
2013-10-26,50,43,37,38,29,-100,88,60,46,0.00,40.00,11,5,24,0.00
2013-10-27,55,43,30,32,29,27,98,61,35,0.00,40.00,7,2,15,0.00
2013-10-28,43,37,32,33,27,-100,95,73,57,0.00,40.00,16,8,21,0.00
2013-10-29,47,39,33,39,32,27,99,79,66,0.00,40.00,11,7,14,0.00
2013-10-30,53,47,38,53,47,37,99,99,99,0.00,40.00,6,3,13,0.00
2013-10-31,54,48,40,53,48,40,99,99,99,0.00,40.00,7,3,16,0.00
2013-11-1,45,41,38,44,39,36,99,94,78,0.00,40.00,6,4,14,0.00
2013-11-2,44,38,32,36,32,-100,98,84,65,0.00,40.00,5,3,12,0.00
2013-11-3,49,42,29,33,30,27,99,66,44,0.00,40.00,8,4,19,0.00
2013-11-4,49,46,44,46,38,32,99,76,62,0.00,40.00,9,4,26,0.00
2013-11-5,47,42,36,44,41,36,99,96,73,0.00,40.00,11,5,15,0.00
2013-11-6,42,36,29,42,30,17,99,81,41,0.00,40.00,10,5,24,0.00
2013-11-7,35,31,26,31,28,25,99,92,80,0.00,40.00,4,2,13,0.00
2013-11-8,43,38,26,38,28,26,99,71,50,0.00,40.00,11,4,22,0.00
2013-11-9,45,42,37,41,33,-100,88,74,58,0.00,40.00,11,6,26,0.00
2013-11-10,45,39,35,29,28,26,78,63,48,0.00,40.00,9,4,18,0.00
2013-11-11,41,28,16,34,20,6,99,73,54,0.00,40.00,7,4,19,0.00
2013-11-12,25,18,11,13,10,6,90,71,53,0.00,40.00,6,3,12,0.00
2013-11-13,42,32,17,24,16,11,83,55,39,0.00,40.00,9,4,24,0.00
2013-11-14,48,40,33,29,23,15,60,50,40,0.00,40.00,6,4,17,0.00
2013-11-15,53,47,37,35,33,27,77,59,48,0.00,40.00,4,2,12,0.00
2013-11-16,58,47,40,57,43,-100,98,90,70,0.00,40.00,7,4,21,0.00
2013-11-17,53,45,36,52,43,30,98,93,75,0.00,40.00,11,6,26,0.00
2013-11-18,36,30,22,30,22,20,93,75,63,0.00,40.00,11,6,24,0.00
2013-11-19,39,31,19,26,22,18,98,70,47,0.00,40.00,9,4,18,0.00
2013-11-20,38,36,33,35,28,23,99,75,54,0.00,40.00,8,5,21,0.00
2013-11-21,38,36,29,38,35,29,99,99,99,0.00,40.00,6,2,15,0.00
2013-11-22,30,26,23,29,18,10,99,75,47,0.00,40.00,7,4,17,0.00
2013-11-23,23,12,6,16,2,-100,82,65,54,0.00,40.00,9,5,20,0.00
2013-11-24,23,16,6,5,3,1,88,61,39,0.00,40.00,7,3,23,0.00
2013-11-25,35,29,23,27,20,4,92,70,41,0.00,40.00,7,4,23,0.00
2013-11-26,34,22,10,24,10,0,79,60,46,0.00,40.00,9,5,25,0.00
2013-11-27,23,15,3,12,6,-3,93,70,53,0.00,40.00,6,3,14,0.00
2013-11-28,27,23,19,14,12,9,71,63,54,0.00,40.00,9,3,17,0.00
2013-11-29,31,24,12,19,15,10,95,70,51,0.00,40.00,6,3,17,0.00
2013-11-30,43,35,28,28,24,-100,78,66,53,0.00,40.00,7,3,19,0.00
2013-12-1,36,30,24,29,25,23,99,82,58,0.00,40.00,4,1,8,0.00
2013-12-2,37,30,21,33,28,21,99,93,74,0.00,40.00,11,5,21,0.00
2013-12-3,33,33,32,33,33,32,99,99,99,0.00,40.00,15,10,22,0.00
2013-12-4,32,32,32,32,32,32,99,99,99,0.00,40.00,8,7,12,0.00
2013-12-6,6,4,2,0,-1,-2,89,81,69,0.00,40.00,4,3,9,0.00
2013-12-7,7,0,-9,-1,-7,-100,92,77,53,0.00,40.00,6,3,13,0.00
2013-12-8,11,8,3,10,6,-3,98,89,70,0.00,40.00,12,6,16,0.00
2013-12-9,9,2,-7,9,-1,-13,98,87,63,0.00,40.00,7,3,21,0.00
2013-12-10,10,3,-6,6,-3,-9,92,78,61,0.00,40.00,9,4,22,0.00
2013-12-11,8,-1,-7,7,-7,-13,97,75,54,0.00,40.00,7,3,18,0.00
2013-12-12,18,10,-4,12,3,-8,85,73,62,0.00,40.00,6,2,13,0.00
2013-12-13,20,16,12,14,11,5,93,81,67,0.00,40.00,14,9,21,0.00
2013-12-14,20,15,12,17,12,-100,97,90,76,0.00,40.00,12,7,21,0.00
2013-12-15,12,4,-2,10,-3,-11,94,72,52,0.00,40.00,8,5,19,0.00
2013-12-16,14,5,-7,13,0,-12,99,81,58,0.00,40.00,6,2,12,0.00
2013-12-17,31,24,14,27,19,8,99,83,64,0.00,40.00,10,5,19,0.00
2013-12-18,35,25,9,29,16,5,91,70,46,0.00,40.00,7,4,22,0.00
2013-12-19,32,24,21,29,22,18,99,91,83,0.00,40.00,13,9,22,0.00
2013-12-20,21,19,17,21,19,17,99,99,99,0.00,40.00,13,5,21,0.00
2013-12-21,25,22,20,25,21,-100,99,98,99,0.00,40.00,0,0,0,0.00
2013-12-22,25,23,21,24,22,20,99,96,90,0.00,40.00,0,0,0,0.00
2013-12-23,21,4,-8,21,3,-9,99,96,88,0.00,40.00,0,0,0,0.00
2013-12-24,11,5,-9,7,2,-11,94,87,80,0.00,40.00,0,0,0,0.00
2013-12-25,21,15,7,21,14,6,99,94,86,0.00,40.00,0,0,0,0.00
2013-12-26,23,18,11,22,16,10,97,90,74,0.00,40.00,2,0,6,0.00
2013-12-27,38,32,17,31,27,16,99,81,66,0.00,40.00,5,3,20,0.00
2013-12-28,43,40,32,31,25,-100,97,59,52,0.00,40.00,6,3,19,0.00
2013-12-29,37,14,-5,32,10,-14,99,84,65,0.00,40.00,11,7,28,0.00
2013-12-30,1,-2,-5,-4,-8,-15,91,74,50,0.00,40.00,3,1,6,0.00
2013-12-31,4,0,-7,-1,-5,-12,93,82,67,0.00,40.00,6,2,9,0.00
2014-1-1,6,0,-8,-5,-8,-12,82,70,56,0.00,40.00,9,6,13,0.00
2014-1-2,9,4,-4,-3,-5,-9,77,66,49,0.00,40.00,7,3,14,0.00